Location: Kerentrech
(47.7567°N, 3.3595°W)
Time: 15:20:42
(UTC+00:00)

Meteor 1-31 Rocket - Pass Details

Date: 17 February 2020
Orbit: 522 x 546 km, 97.6° (Epoch: 07 April)

Event Time Altitude Azimuth Distance (km) Brightness Sun altitude
Rises 05:37:47 0° 5° (N) 2,666 6.4 -17.3°
Reaches altitude 10° 05:40:00 10° 356° (N) 1,773 5.4 -16.9°
Maximum altitude 05:43:29 34° 291° (WNW) 880 3.3 -16.3°
Enters shadow 05:43:48 34° 279° (W) 891 3.3 -16.3°
